Alma, GA

11:18 PM EDT on October 17, 2017 (GMT -0400)
Bacon County

Weather History for KAMG - January, 2013

Change the Weather History Date:

Saturday, January 12, 2013

  Actual Average Record
Temperature  
Mean Temperature 66 °F 50 °F  
Max Temperature 81 °F 61 °F 81 °F (2013)
Min Temperature 51 °F 39 °F 17 °F (1982)
Degree Days  
Heating Degree Days 0 15  
Month to date heating degree days 97 180  
Since 1 July heating degree days 691 820  
Cooling Degree Days 1 0  
Month to date cooling degree days 6 0  
Year to date cooling degree days 6 0  
Growing Degree Days 16 (Base 50)    
Moisture  
Dew Point 55 °F    
Average Humidity 73    
Maximum Humidity 100    
Minimum Humidity 45    
Precipitation  
Precipitation 0.00 in 0.14 in 2.37 in (1964)
Month to date precipitation 0.18 1.55  
Year to date precipitation 0.18 1.55  
Snow  
Snow 0.00 in 0.00 in 0.00 in ()
Month to date snowfall 0.0 0.0  
Since 1 July snowfall 0.0 0.1  
Snow Depth 0.00 in    
Sea Level Pressure  
Sea Level Pressure 30.17 in    
Wind  
Wind Speed 3 mph (South)    
Max Wind Speed 12 mph    
Max Gust Speed 15 mph    
Visibility 4 miles    
Events Fog    
T = Trace of Precipitation, MM = Missing Value Source: NWS Daily Summary

Daily Weather History Graph

Daily Weather History Graph

Search for Another Location

Airport or City:

Trip Planner

Search our weather history database for the weather conditions in past years. The results will help you decide how hot, cold, wet, or windy it might be!

Date:

Astronomy

Jan. 12, 2013 Rise Set
Actual Time 7:30 AM EST 5:46 PM EST
Civil Twilight 7:03 AM EST 6:13 PM EST
Nautical Twilight 6:33 AM EST 6:43 PM EST
Astronomical Twilight 6:04 AM EST 7:12 PM EST
Moon 7:54 AM EST (1/12) 7:06 PM EST (1/12)
Length of Visible Light 11h 09m
Length of Day
10h 16m
New Moon, 1% of the Moon is Illuminated
Jan 12
New Moon
Jan 18
First Quarter
Jan 26
Full
Feb 3
Last Quarter
Feb 10
New

Hourly Weather History & Observations

Time (EST) Temp. Heat Index Dew Point Humidity Pressure Visibility Wind Dir Wind Speed Gust Speed Precip Events Conditions
12:16 AM 57.2 °F - 55.4 °F 94% 30.19 in 1.2 mi Calm Calm - N/A   Partly Cloudy
12:21 AM 57.2 °F - 55.4 °F 94% 30.19 in 3.0 mi Calm Calm - N/A   Partly Cloudy
12:40 AM 57.2 °F - 55.4 °F 94% 30.19 in 1.5 mi Calm Calm - N/A   Clear
12:48 AM 55.4 °F - 55.4 °F 100% 30.19 in 0.2 mi Calm Calm - N/A Fog Fog
12:53 AM 55.9 °F - 55.0 °F 97% 30.18 in 0.5 mi Calm Calm - N/A Fog Fog
1:05 AM 55.4 °F - 53.6 °F 94% 30.19 in 0.5 mi Calm Calm - N/A Fog Fog
1:39 AM 57.2 °F - 55.4 °F 94% 30.19 in 1.0 mi Calm Calm - N/A   Clear
1:43 AM 57.2 °F - 55.4 °F 94% 30.18 in 3.0 mi Calm Calm - N/A   Clear
1:50 AM 57.2 °F - 55.4 °F 94% 30.18 in 1.8 mi Calm Calm - N/A   Clear
1:53 AM 55.9 °F - 55.0 °F 97% 30.18 in 1.2 mi Calm Calm - N/A   Clear
2:02 AM 55.4 °F - 53.6 °F 94% 30.18 in 0.8 mi Calm Calm - N/A   Clear
2:10 AM 55.4 °F - 53.6 °F 94% 30.18 in 0.2 mi Calm Calm - N/A Fog Fog
2:53 AM 55.0 °F - 54.0 °F 96% 30.18 in 0.8 mi Calm Calm - N/A   Mist
3:08 AM 55.4 °F - 53.6 °F 94% 30.18 in 1.2 mi Calm Calm - N/A   Partly Cloudy
3:18 AM 55.4 °F - 53.6 °F 94% 30.18 in 1.0 mi Calm Calm - N/A   Mist
3:22 AM 55.4 °F - 53.6 °F 94% 30.18 in 3.0 mi Calm Calm - N/A   Partly Cloudy
3:29 AM 55.4 °F - 53.6 °F 94% 30.18 in 1.8 mi Calm Calm - N/A   Clear
3:33 AM 55.4 °F - 53.6 °F 94% 30.18 in 0.8 mi Calm Calm - N/A   Mist
3:45 AM 53.6 °F - 53.6 °F 100% 30.17 in 0.2 mi Calm Calm - N/A Fog Fog
3:53 AM 54.0 °F - 53.1 °F 97% 30.17 in 0.5 mi Calm Calm - N/A Fog Fog
4:11 AM 55.4 °F - 53.6 °F 94% 30.17 in 1.2 mi Calm Calm - N/A   Partly Cloudy
4:26 AM 53.6 °F - 53.6 °F 100% 30.17 in 4.0 mi Calm Calm - N/A   Clear
4:32 AM 55.4 °F - 53.6 °F 94% 30.17 in 1.8 mi Calm Calm - N/A   Clear
4:42 AM 53.6 °F - 51.8 °F 94% 30.17 in 0.5 mi Calm Calm - N/A Fog Fog
4:53 AM 54.0 °F - 52.0 °F 93% 30.17 in 0.8 mi Calm Calm - N/A   Mist
5:09 AM 53.6 °F - 51.8 °F 94% 30.17 in 0.2 mi Calm Calm - N/A Fog Fog
5:16 AM 53.6 °F - 51.8 °F 94% 30.17 in 0.5 mi Calm Calm - N/A Fog Fog
5:26 AM 53.6 °F - 51.8 °F 94% 30.17 in 0.5 mi Calm Calm - N/A Fog Fog
5:33 AM 53.6 °F - 51.8 °F 94% 30.17 in 1.0 mi Calm Calm - N/A   Mist
5:40 AM 53.6 °F - 51.8 °F 94% 30.17 in 3.0 mi Calm Calm - N/A   Scattered Clouds
5:53 AM 54.0 °F - 52.0 °F 93% 30.17 in 9.0 mi Calm Calm - N/A   Partly Cloudy
6:19 AM 53.6 °F - 51.8 °F 94% 30.18 in 1.8 mi Calm Calm - N/A   Scattered Clouds
6:22 AM 53.6 °F - 51.8 °F 94% 30.18 in 0.8 mi Calm Calm - N/A   Mist
6:53 AM 53.1 °F - 52.0 °F 96% 30.18 in 0.8 mi Calm Calm - N/A   Mist
6:56 AM 53.6 °F - 51.8 °F 94% 30.18 in 1.5 mi Calm Calm - N/A   Partly Cloudy
7:14 AM 51.8 °F - 51.8 °F 100% 30.19 in 0.8 mi Calm Calm - N/A   Mist
7:37 AM 53.6 °F - 51.8 °F 94% 30.19 in 1.0 mi Calm Calm - N/A   Clear
7:53 AM 53.1 °F - 52.0 °F 96% 30.19 in 2.0 mi Calm Calm - N/A   Clear
8:00 AM 53.6 °F - 51.8 °F 94% 30.19 in 4.0 mi Calm Calm - N/A   Clear
8:53 AM 61.0 °F - 59.0 °F 93% 30.19 in 4.0 mi Calm Calm - N/A   Clear
9:53 AM 69.1 °F - 60.1 °F 73% 30.19 in 10.0 mi SSE 6.9 mph - N/A   Clear
10:53 AM 75.0 °F - 60.1 °F 60% 30.19 in 10.0 mi SSW 4.6 mph - N/A   Clear
11:53 AM 77.0 °F - 61.0 °F 58% 30.17 in 10.0 mi SSW 6.9 mph - N/A   Clear
12:53 PM 77.0 °F - 59.0 °F 54% 30.15 in 10.0 mi South 6.9 mph - N/A   Partly Cloudy
1:53 PM 81.0 °F 81.3 °F 59.0 °F 47% 30.13 in 10.0 mi SW 9.2 mph - N/A   Mostly Cloudy
2:53 PM 81.0 °F 81.1 °F 57.9 °F 45% 30.13 in 10.0 mi SW 8.1 mph - N/A   Mostly Cloudy
3:53 PM 79.0 °F - 57.9 °F 48% 30.12 in 10.0 mi SW 3.5 mph - N/A   Partly Cloudy
4:53 PM 77.0 °F - 59.0 °F 54% 30.12 in 10.0 mi SSE 4.6 mph - N/A   Clear
5:53 PM 69.1 °F - 60.1 °F 73% 30.12 in 10.0 mi Calm Calm - N/A   Clear
6:53 PM 64.9 °F - 60.1 °F 84% 30.12 in 10.0 mi Calm Calm - N/A   Clear
8:53 PM 62.1 °F - 57.9 °F 86% 30.11 in 10.0 mi SE 4.6 mph - N/A   Clear
9:53 PM 66.0 °F - 59.0 °F 78% 30.10 in 10.0 mi SE 4.6 mph - N/A   Clear
10:53 PM 62.1 °F - 57.9 °F 86% 30.12 in 10.0 mi Calm Calm - N/A   Mostly Cloudy
11:53 PM 61.0 °F - 57.9 °F 90% 30.13 in 10.0 mi Calm Calm - N/A   Mostly Cloudy